Date String (YYYY-MM-DD hh:mm:ss) UTC,Instrument flags,absolute air pressure of the measurement (hPa),sample flow rate (lpm),inlet stack bypass flow (lpm),air temperature of the measurement (°C),ambient temperature measured by the external sensor (°C),aerosol sample conditioner tube jacket temperature (°C),OPC LED temperature (°C),internal box temperature (°C),relative humidity of the measurement (%),span deviation,mass concentration of particles derived from Lorenz-Mie calculation of OPC scattering (μg/m³),mass concentration of particles derived from Lorenz-Mie calculation of OPC scattering (μg/m³),mass concentration of particles derived from Lorenz-Mie calculation of OPC scattering (μg/m³)
DateTimeUTC,F1_M11,P_M11,Q1_M11,Q2_M11,T1_M11,T2_M11,T3_M11,T4_M11,T5_M11,U1_M11,ZSPAN_M11,X0_M11,X2_M11,X1_M11
2023-09-23 15:00:00,SystemResetWarning,0828.8,5.01,000.00,028.1,026.7,000.0,036.3,029.7,12.7,0002.4,0007.01,0003.61,0003.26
2023-09-23 15:01:00,SystemResetWarning,0828.7,5.00,000.00,028.1,026.8,000.0,036.3,029.7,13.1,0003.3,0006.72,0003.59,0003.25
2023-09-23 15:02:00,SystemResetWarning,0828.8,5.01,000.00,028.1,026.8,000.0,036.3,029.7,11.9,0003.6,0006.72,0003.61,0003.27
2023-09-23 15:03:00,SystemResetWarning,0829.0,5.00,000.00,028.1,026.8,000.0,036.3,029.7,12.7,0003.8,0006.60,0003.61,0003.26
2023-09-23 15:04:00,SystemResetWarning,0829.0,5.00,000.00,028.1,026.8,000.0,036.4,029.8,13.1,0003.4,0006.58,0003.62,0003.26
2023-09-23 15:05:00,SystemResetWarning,0829.1,5.00,000.00,028.2,026.9,000.0,036.4,029.8,13.5,0003.3,0006.31,0003.63,0003.26
2023-09-23 15:06:00,SystemResetWarning,0829.1,4.99,000.00,028.2,026.9,000.0,036.4,029.8,13.3,0003.4,0006.34,0003.62,0003.25
2023-09-23 15:07:00,SystemResetWarning,0829.1,5.00,000.00,028.2,026.9,000.0,036.4,029.8,12.7,0003.6,0006.25,0003.58,0003.23
2023-09-23 15:08:00,SystemResetWarning,0829.1,5.00,000.00,028.2,026.9,000.0,036.4,029.9,12.0,0002.4,0007.12,0003.57,0003.23
2023-09-23 15:09:00,SystemResetWarning,0829.2,5.01,000.00,028.2,027.0,000.0,036.4,029.9,12.6,0000.0,0006.87,0003.55,0003.23
2023-09-23 15:10:00,SystemResetWarning,0829.2,5.01,000.00,028.2,027.0,000.0,036.4,029.9,13.9,0000.0,0006.41,0003.51,0003.22
2023-09-23 15:11:00,SystemResetWarning,0829.2,4.99,000.00,028.3,027.0,000.0,036.5,029.9,14.5,0000.0,0006.25,0003.51,0003.20
2023-09-23 15:12:00,SystemResetWarning,0829.1,4.99,000.00,028.3,027.0,000.0,036.5,029.9,14.1,0000.5,0006.30,0003.51,0003.19
2023-09-23 15:13:00,SystemResetWarning,0829.1,5.00,000.00,028.3,027.1,000.0,036.5,029.9,14.3,0001.4,0006.29,0003.50,0003.18
2023-09-23 15:14:00,SystemResetWarning,0829.2,5.00,000.00,028.3,027.1,000.0,036.5,030.0,14.8,0001.0,0006.20,0003.47,0003.17
2023-09-23 15:15:00,SystemResetWarning,0829.2,5.02,000.00,028.3,027.1,000.0,036.5,030.0,14.0,0002.1,0006.18,0003.45,0003.16
2023-09-23 15:16:00,SystemResetWarning,0829.2,5.00,000.00,028.4,027.1,000.0,036.5,030.0,14.2,0003.4,0006.51,0003.44,0003.16
2023-09-23 15:17:00,SystemResetWarning,0829.2,5.00,000.00,028.4,027.2,000.0,036.6,030.0,14.4,0003.9,0006.42,0003.43,0003.16
2023-09-23 15:18:00,SystemResetWarning,0829.1,5.00,000.00,028.4,027.2,000.0,036.6,030.0,15.0,0004.1,0006.82,0003.50,0003.17
2023-09-23 15:19:00,SystemResetWarning,0829.1,4.99,000.00,028.4,027.2,000.0,036.6,030.1,14.0,0004.2,0007.35,0003.60,0003.20
2023-09-23 15:20:00,SystemResetWarning,0829.1,5.00,000.00,028.4,027.2,000.0,036.6,030.1,12.9,0003.6,0007.61,0003.69,0003.24
2023-09-23 15:21:00,SystemResetWarning,0829.2,5.01,000.00,028.4,027.3,000.0,036.6,030.1,11.4,0003.3,0008.02,0003.77,0003.28
2023-09-23 15:22:00,SystemResetWarning,0829.3,5.01,000.00,028.5,027.3,000.0,036.6,030.1,12.2,0003.7,0009.14,0003.84,0003.32
2023-09-23 15:23:00,SystemResetWarning,0829.3,5.00,000.00,028.5,027.3,000.0,036.7,030.1,12.6,0004.0,0010.13,0003.92,0003.36
2023-09-23 15:24:00,SystemResetWarning,0829.3,4.98,000.00,028.5,027.3,000.0,036.7,030.2,12.6,0001.7,0010.52,0004.02,0003.39
2023-09-23 15:25:00,SystemResetWarning,0829.3,4.99,000.00,028.5,027.3,000.0,036.7,030.2,13.1,0000.0,0011.07,0004.17,0003.42
2023-09-23 15:26:00,SystemResetWarning,0829.3,5.00,000.00,028.5,027.4,000.0,036.7,030.2,13.6,0000.0,0011.65,0004.30,0003.47
2023-09-23 15:27:00,SystemResetWarning,0829.4,5.01,000.00,028.6,027.4,000.0,036.7,030.2,13.9,0000.0,0012.09,0004.38,0003.50
2023-09-23 15:28:00,SystemResetWarning,0829.3,5.01,000.00,028.6,027.4,000.0,036.7,030.2,14.2,0000.0,0012.33,0004.46,0003.53
2023-09-23 15:29:00,SystemResetWarning,0829.4,5.00,000.00,028.6,027.4,000.0,036.8,030.3,14.5,0000.6,0012.78,0004.53,0003.56
2023-09-23 15:30:00,SystemResetWarning,0829.3,5.00,000.00,028.6,027.4,000.0,036.8,030.3,14.5,0002.8,0012.73,0004.56,0003.57
2023-09-23 15:31:00,SystemResetWarning,0829.5,4.99,000.00,028.6,027.5,000.0,036.8,030.3,14.3,0003.0,0012.52,0004.59,0003.57
2023-09-23 15:32:00,SystemResetWarning,0829.5,5.00,000.00,028.7,027.5,000.0,036.8,030.3,14.3,0002.9,0013.51,0004.64,0003.58
2023-09-23 15:33:00,SystemResetWarning,0829.4,5.01,000.00,028.7,027.5,000.0,036.8,030.3,14.7,0003.1,0013.56,0004.65,0003.57
2023-09-23 15:34:00,SystemResetWarning,0829.4,5.01,000.00,028.7,027.5,000.0,036.9,030.4,14.6,0003.5,0012.52,0004.67,0003.57
2023-09-23 15:35:00,SystemResetWarning,0829.3,5.00,000.00,028.7,027.5,000.0,036.9,030.4,14.5,0003.7,0013.45,0004.68,0003.57
2023-09-23 15:36:00,SystemResetWarning,0829.4,4.99,000.00,028.7,027.6,000.0,036.9,030.4,15.0,0003.6,0013.34,0004.62,0003.57
2023-09-23 15:37:00,SystemResetWarning,0829.3,5.00,000.00,028.8,027.6,000.0,036.9,030.4,15.1,0003.1,0013.76,0004.54,0003.55
2023-09-23 15:38:00,SystemResetWarning,0829.4,5.01,000.00,028.8,027.6,000.0,036.9,030.4,15.3,0002.7,0013.96,0004.53,0003.55
2023-09-23 15:39:00,SystemResetWarning,0829.4,5.01,000.00,028.8,027.6,000.0,036.9,030.5,14.6,0003.3,0014.75,0004.51,0003.55
2023-09-23 15:40:00,SystemResetWarning,0829.4,5.01,000.00,028.8,027.6,000.0,037.0,030.5,13.5,0003.4,0014.48,0004.51,0003.55
2023-09-23 15:41:00,SystemResetWarning,0829.3,4.99,000.00,028.8,027.6,000.0,037.0,030.5,14.0,0002.8,0014.07,0004.48,0003.55
2023-09-23 15:42:00,SystemResetWarning,0829.4,5.00,000.00,028.8,027.7,000.0,037.0,030.5,14.8,0000.0,0014.28,0004.41,0003.52
2023-09-23 15:43:00,SystemResetWarning,0829.4,5.00,000.00,028.9,027.7,000.0,037.0,030.5,14.2,0000.0,0014.03,0004.36,0003.50
2023-09-23 15:44:00,SystemResetWarning,0829.5,5.01,000.00,028.9,027.7,000.0,037.0,030.6,14.9,0000.0,0013.67,0004.33,0003.47
2023-09-23 15:45:00,SystemResetWarning,0829.5,5.01,000.00,028.9,027.7,000.0,037.1,030.6,14.0,0000.0,0014.16,0004.32,0003.47
2023-09-23 15:46:00,SystemResetWarning,0829.4,5.00,000.00,028.9,027.7,000.0,037.1,030.6,14.9,0000.0,0014.13,0004.28,0003.47
2023-09-23 15:47:00,SystemResetWarning,0829.5,4.99,000.00,028.9,027.7,000.0,037.1,030.6,15.7,0000.0,0014.10,0004.29,0003.47
2023-09-23 15:48:00,SystemResetWarning,0829.6,4.99,000.00,028.9,027.8,000.0,037.1,030.6,16.0,0000.0,0013.70,0004.32,0003.47
2023-09-23 15:49:00,SystemResetWarning,0829.6,4.99,000.00,029.0,027.8,000.0,037.1,030.6,16.1,0000.0,0013.80,0004.30,0003.47
2023-09-23 15:50:00,SystemResetWarning,0829.6,5.00,000.00,029.0,027.8,000.0,037.1,030.7,15.9,0000.0,0012.63,0004.30,0003.46
2023-09-23 15:51:00,SystemResetWarning,0829.6,5.01,000.00,029.0,027.8,000.0,037.2,030.7,15.9,0000.0,0012.77,0004.27,0003.46
2023-09-23 15:52:00,SystemResetWarning,0829.7,5.00,000.00,029.0,027.9,000.0,037.2,030.7,15.8,0000.0,0012.89,0004.27,0003.45
2023-09-23 15:53:00,SystemResetWarning,0829.7,5.00,000.00,029.0,027.9,000.0,037.2,030.7,15.6,0000.0,0012.62,0004.29,0003.47
2023-09-23 15:54:00,SystemResetWarning,0829.7,5.00,000.00,029.1,027.9,000.0,037.2,030.7,15.9,0000.0,0012.35,0004.33,0003.49
2023-09-23 15:55:00,SystemResetWarning,0829.6,5.00,000.00,029.1,027.9,000.0,037.2,030.8,15.5,0001.4,0011.80,0004.31,0003.51
2023-09-23 15:56:00,SystemResetWarning,0829.6,5.00,000.00,029.1,028.0,000.0,037.3,030.8,15.2,0000.8,0011.12,0004.31,0003.51
2023-09-23 15:57:00,SystemResetWarning,0829.6,5.00,000.00,029.1,028.0,000.0,037.3,030.8,15.1,0001.4,0011.70,0004.26,0003.49
2023-09-23 15:58:00,SystemResetWarning,0829.7,5.00,000.00,029.1,028.0,000.0,037.3,030.8,15.4,0002.6,0011.68,0004.24,0003.48
2023-09-23 15:59:00,SystemResetWarning,0829.6,5.00,000.00,029.2,028.0,000.0,037.3,030.8,15.4,0001.3,0011.78,0004.25,0003.47
